User: anonymous   Login
Location: Caltech
(34.1382°N, 118.1253°W)
Time: 19:15:57
(UTC-08:00)
Language:

COSMOS 2428 - Orbit

View from above orbital plane
View from above orbital plane
View from above satellite
View from above satellite

Ground track
Ground track

The orbit data is extracted from the following two-line orbital elements,

1 31792U 07029A   18051.86810245  .00000326  00000-0  20254-3 0  9996
2 31792  70.9469 250.3324 0011460 262.2264  97.7556 14.12454166549184
Epoch (UTC): 20 February 2018 20:50:04
Eccentricity: 0.0011460
inclination: 70.9469°
perigee height: 843 km
apogee height: 859 km
right ascension of ascending node: 250.3324°
argument of perigee: 262.2264°
revolutions per day: 14.12454166
mean anomaly at epoch: 97.7556°
orbit number at epoch: 54918

The dashed part of the orbit path shows where the satellite is in the earth's shadow,  

DLR